When you browse on this site, cookies collect data to enhance your experience and personalize the content and advertising you see.
Visit our Privacy Policy to learn more. By continuing to use the site, you agree to this use of cookies and data.
  • In Lithuania
  • List of Countries
  • For 7 days
  • Water Temperature
  • Satellite Maps
  • Weather Map
  • Weather Widgets
  • user-avatar
    Login

    Hourly Weather Kalinowa

    Today, 23 July, Tuesday

    Time Temperature Precipitation Wind Pressure Humidity
    00:00 +20°C° 0.2 mm 1 mps 753 mmHg 82%
    01:00 +19°C° 0.2 mm 1 mps 753 mmHg 90%
    02:00 +19°C° 0 mm 1 mps 753 mmHg 91%
    03:00 +19°C° 0 mm 1 mps 752 mmHg 92%
    04:00 +19°C° 0 mm 1 mps 752 mmHg 93%
    05:00 +19°C° 0 mm 1 mps 752 mmHg 92%
    06:00 +20°C° 0 mm 1 mps 752 mmHg 90%
    07:00 +20°C° 0 mm 1 mps 752 mmHg 89%
    08:00 +20°C° 0 mm 2 mps 752 mmHg 83%
    09:00 +22°C° 0 mm 3 mps 752 mmHg 76%
    10:00 +24°C° 0 mm 3 mps 752 mmHg 70%
    11:00 +25°C° 0 mm 4 mps 752 mmHg 67%
    12:00 +26°C° 0 mm 4 mps 752 mmHg 65%
    13:00 +26°C° 0 mm 4 mps 752 mmHg 62%
    14:00 +27°C° 0 mm 4 mps 752 mmHg 62%
    15:00 +27°C° 0 mm 3 mps 752 mmHg 61%
    16:00 +27°C° 0 mm 3 mps 752 mmHg 60%
    17:00 +26°C° 0.1 mm 3 mps 751 mmHg 66%
    18:00 +25°C° 0.1 mm 2 mps 751 mmHg 71%
    19:00 +24°C° 0.1 mm 1 mps 751 mmHg 77%
    20:00 +23°C° 0 mm 1 mps 751 mmHg 81%
    21:00 +22°C° 0 mm 1 mps 751 mmHg 85%
    22:00 +19°C° 0 mm 0 mps 752 mmHg 89%
    23:00 +21°C° 0 mm 1 mps 751 mmHg 90%

    Tomorrow, 24 July, Wednesday

    Time Temperature Precipitation Wind Pressure Humidity
    00:00 +20°C° 0 mm 1 mps 751 mmHg 90%
    01:00 +20°C° 0 mm 1 mps 751 mmHg 91%
    02:00 +20°C° 0 mm 1 mps 751 mmHg 92%
    03:00 +19°C° 0 mm 2 mps 751 mmHg 92%
    04:00 +18°C° 0 mm 2 mps 750 mmHg 93%
    05:00 +20°C° 0 mm 2 mps 751 mmHg 89%
    06:00 +21°C° 0 mm 2 mps 751 mmHg 84%
    07:00 +23°C° 0 mm 2 mps 751 mmHg 80%
    08:00 +24°C° 0 mm 2 mps 751 mmHg 73%
    09:00 +26°C° 0 mm 3 mps 751 mmHg 66%
    10:00 +27°C° 0 mm 3 mps 751 mmHg 59%
    11:00 +27°C° 0 mm 3 mps 751 mmHg 57%
    12:00 +28°C° 0 mm 3 mps 750 mmHg 55%
    13:00 +28°C° 0 mm 2 mps 750 mmHg 54%
    14:00 +28°C° 0 mm 2 mps 750 mmHg 54%
    15:00 +29°C° 0 mm 2 mps 750 mmHg 53%
    16:00 +29°C° 0 mm 2 mps 750 mmHg 53%
    17:00 +28°C° 0 mm 2 mps 750 mmHg 58%
    18:00 +27°C° 0 mm 2 mps 750 mmHg 63%
    19:00 +26°C° 0 mm 1 mps 750 mmHg 67%
    20:00 +24°C° 0 mm 1 mps 750 mmHg 72%
    21:00 +23°C° 0 mm 1 mps 751 mmHg 77%
    22:00 +22°C° 0 mm 1 mps 751 mmHg 81%
    23:00 +21°C° 0 mm 1 mps 751 mmHg 83%

    Day after tomorrow, 25 July, Thursday

    Time Temperature Precipitation Wind Pressure Humidity
    00:00 +21°C° 0 mm 1 mps 751 mmHg 85%
    01:00 +20°C° 0 mm 1 mps 751 mmHg 87%
    02:00 +20°C° 0 mm 1 mps 751 mmHg 88%
    03:00 +20°C° 0 mm 1 mps 751 mmHg 89%
    04:00 +19°C° 0 mm 1 mps 751 mmHg 89%
    05:00 +19°C° 0 mm 0 mps 751 mmHg 84%
    06:00 +20°C° 0 mm 0 mps 751 mmHg 78%
    07:00 +22°C° 0 mm 0 mps 751 mmHg 73%
    08:00 +25°C° 0 mm 1 mps 751 mmHg 67%
    09:00 +27°C° 0 mm 1 mps 751 mmHg 61%
    10:00 +28°C° 0 mm 1 mps 751 mmHg 54%
    11:00 +29°C° 0 mm 1 mps 751 mmHg 51%
    12:00 +30°C° 0 mm 1 mps 750 mmHg 47%
    13:00 +31°C° 0 mm 2 mps 750 mmHg 44%
    14:00 +31°C° 0 mm 2 mps 750 mmHg 44%
    15:00 +31°C° 0 mm 2 mps 750 mmHg 44%
    16:00 +31°C° 0 mm 2 mps 749 mmHg 45%
    17:00 +29°C° 0 mm 2 mps 749 mmHg 51%
    18:00 +28°C° 0 mm 2 mps 749 mmHg 57%
    19:00 +26°C° 0 mm 2 mps 749 mmHg 63%
    20:00 +25°C° 0 mm 2 mps 749 mmHg 66%
    21:00 +24°C° 0 mm 2 mps 749 mmHg 70%
    22:00 +22°C° 0 mm 1 mps 750 mmHg 73%
    23:00 +22°C° 0 mm 1 mps 749 mmHg 77%

    26 July, Friday

    Time Temperature Precipitation Wind Pressure Humidity
    00:00 +21°C° 0 mm 1 mps 749 mmHg 80%
    01:00 +20°C° 0 mm 1 mps 749 mmHg 84%
    02:00 +20°C° 0 mm 1 mps 749 mmHg 85%
    03:00 +20°C° 0 mm 1 mps 749 mmHg 87%
    04:00 +18°C° 0 mm 2 mps 749 mmHg 89%
    05:00 +19°C° 0 mm 2 mps 749 mmHg 83%
    06:00 +20°C° 0 mm 2 mps 749 mmHg 76%
    07:00 +21°C° 0 mm 2 mps 749 mmHg 70%
    08:00 +22°C° 0 mm 3 mps 749 mmHg 63%
    09:00 +25°C° 0 mm 3 mps 749 mmHg 55%
    10:00 +26°C° 0 mm 3 mps 749 mmHg 48%
    11:00 +26°C° 0 mm 3 mps 748 mmHg 47%
    12:00 +27°C° 0 mm 3 mps 748 mmHg 47%
    13:00 +27°C° 0 mm 3 mps 748 mmHg 47%
    14:00 +27°C° 0 mm 3 mps 747 mmHg 47%
    15:00 +27°C° 0 mm 3 mps 747 mmHg 47%
    16:00 +27°C° 0 mm 3 mps 747 mmHg 47%
    17:00 +26°C° 0 mm 3 mps 747 mmHg 52%
    18:00 +25°C° 0 mm 3 mps 747 mmHg 57%
    19:00 +24°C° 0 mm 3 mps 747 mmHg 62%
    20:00 +22°C° 0 mm 3 mps 747 mmHg 66%
    21:00 +20°C° 0 mm 3 mps 747 mmHg 70%
    22:00 +19°C° 0 mm 3 mps 747 mmHg 75%
    23:00 +18°C° 0 mm 2 mps 747 mmHg 78%

    27 July, Saturday

    Time Temperature Precipitation Wind Pressure Humidity
    00:00 +18°C° 0 mm 2 mps 747 mmHg 81%
    01:00 +17°C° 0 mm 2 mps 747 mmHg 84%
    02:00 +18°C° 0 mm 1 mps 746 mmHg 87%
    03:00 +18°C° 0 mm 1 mps 746 mmHg 90%
    04:00 +16°C° 0 mm 1 mps 746 mmHg 93%
    05:00 +18°C° 0 mm 2 mps 746 mmHg 88%
    06:00 +19°C° 0 mm 2 mps 746 mmHg 84%
    07:00 +20°C° 0 mm 2 mps 746 mmHg 79%
    08:00 +22°C° 0.1 mm 3 mps 746 mmHg 73%
    09:00 +24°C° 0.1 mm 3 mps 746 mmHg 67%
    10:00 +25°C° 0.1 mm 4 mps 746 mmHg 61%
    11:00 +26°C° 0.4 mm 4 mps 746 mmHg 60%
    12:00 +26°C° 0.4 mm 4 mps 745 mmHg 58%
    13:00 +27°C° 0.4 mm 4 mps 745 mmHg 57%
    14:00 +27°C° 0.2 mm 4 mps 745 mmHg 55%
    15:00 +28°C° 0.2 mm 5 mps 745 mmHg 52%
    16:00 +28°C° 0.2 mm 5 mps 745 mmHg 50%
    17:00 +27°C° 0 mm 4 mps 745 mmHg 54%
    18:00 +25°C° 0 mm 4 mps 745 mmHg 59%
    19:00 +24°C° 0 mm 3 mps 744 mmHg 63%
    20:00 +22°C° 0 mm 3 mps 745 mmHg 68%
    21:00 +21°C° 0 mm 3 mps 745 mmHg 74%
    22:00 +19°C° 0 mm 3 mps 745 mmHg 79%
    23:00 +19°C° 0 mm 3 mps 745 mmHg 83%

    28 July, Sunday

    Time Temperature Precipitation Wind Pressure Humidity
    00:00 +18°C° 0 mm 2 mps 745 mmHg 87%
    01:00 +17°C° 0 mm 2 mps 745 mmHg 90%
    02:00 +17°C° 0 mm 2 mps 744 mmHg 92%
    03:00 +17°C° 0 mm 2 mps 744 mmHg 93%
    04:00 +16°C° 0 mm 2 mps 744 mmHg 95%
    05:00 +18°C° 0 mm 2 mps 744 mmHg 90%
    06:00 +19°C° 0 mm 2 mps 744 mmHg 84%
    07:00 +20°C° 0 mm 3 mps 744 mmHg 79%
    08:00 +22°C° 0 mm 3 mps 744 mmHg 71%
    09:00 +25°C° 0 mm 4 mps 744 mmHg 62%
    10:00 +27°C° 0 mm 4 mps 744 mmHg 54%
    11:00 +28°C° 0.2 mm 4 mps 744 mmHg 52%
    12:00 +28°C° 0.2 mm 4 mps 744 mmHg 49%
    13:00 +29°C° 0.2 mm 4 mps 743 mmHg 47%
    14:00 +29°C° 0.2 mm 4 mps 743 mmHg 48%
    15:00 +29°C° 0.2 mm 4 mps 743 mmHg 49%
    16:00 +28°C° 0.2 mm 4 mps 743 mmHg 51%
    17:00 +27°C° 0.5 mm 4 mps 743 mmHg 57%
    18:00 +26°C° 0.5 mm 3 mps 743 mmHg 63%
    19:00 +25°C° 0.5 mm 3 mps 743 mmHg 69%
    20:00 +23°C° 0.8 mm 2 mps 743 mmHg 74%
    21:00 +21°C° 0.8 mm 2 mps 743 mmHg 80%
    22:00 +20°C° 0.8 mm 2 mps 743 mmHg 85%
    23:00 +21°C° 0.2 mm 1 mps 743 mmHg 86%
    Show more